TimeEDT,TemperatureF,Dew PointF,Humidity,Sea Level PressureIn,VisibilityMPH,Wind Direction,Wind SpeedMPH,Gust SpeedMPH,PrecipitationIn,Events,Conditions,WindDirDegrees,DateUTC
12:15 AM,67.1,66.2,97,29.86,10.0,South,11.5,17.3,N/A,,Overcast,170,2014-04-15 04:15:00
12:35 AM,67.3,66.2,96,29.86,10.0,South,11.5,-,N/A,,Overcast,170,2014-04-15 04:35:00
1:15 AM,68.0,66.4,95,29.85,10.0,South,11.5,-,N/A,,Overcast,170,2014-04-15 05:15:00
1:35 AM,68.2,66.6,95,29.84,10.0,SSE,9.2,-,N/A,,Overcast,160,2014-04-15 05:35:00
1:55 AM,68.4,66.6,94,29.84,10.0,South,8.1,-,N/A,,Overcast,170,2014-04-15 05:55:00
2:15 AM,68.4,66.6,94,29.83,10.0,South,6.9,-,N/A,,Overcast,180,2014-04-15 06:15:00
2:35 AM,68.9,67.1,94,29.82,10.0,South,8.1,-,N/A,,Overcast,170,2014-04-15 06:35:00
2:55 AM,68.9,67.3,95,29.81,10.0,South,8.1,-,N/A,,Overcast,170,2014-04-15 06:55:00
3:15 AM,69.1,67.5,95,29.80,10.0,SSE,10.4,-,N/A,,Overcast,160,2014-04-15 07:15:00
3:35 AM,69.3,67.6,95,29.79,10.0,SSE,11.5,-,N/A,,Overcast,160,2014-04-15 07:35:00
3:55 AM,69.4,68.0,95,29.78,10.0,South,9.2,-,N/A,,Overcast,170,2014-04-15 07:55:00
4:15 AM,69.4,68.0,95,29.76,10.0,SSE,9.2,-,N/A,,Overcast,160,2014-04-15 08:15:00
4:35 AM,69.8,68.0,94,29.75,10.0,SSE,10.4,-,N/A,,Overcast,160,2014-04-15 08:35:00
4:55 AM,69.8,68.0,94,29.74,10.0,SSE,10.4,17.3,N/A,,Overcast,160,2014-04-15 08:55:00
5:15 AM,70.0,68.2,94,29.74,10.0,SSE,10.4,18.4,N/A,,Overcast,160,2014-04-15 09:15:00
5:35 AM,70.0,68.4,95,29.73,10.0,South,10.4,-,N/A,,Overcast,170,2014-04-15 09:35:00
5:55 AM,70.2,68.2,93,29.74,10.0,South,10.4,-,N/A,,Overcast,170,2014-04-15 09:55:00
6:15 AM,70.2,68.4,94,29.73,10.0,South,10.4,-,N/A,,Overcast,170,2014-04-15 10:15:00
6:35 AM,70.3,68.5,94,29.72,10.0,South,12.7,-,N/A,,Overcast,180,2014-04-15 10:35:00
6:55 AM,70.3,68.7,95,29.73,10.0,SSW,9.2,16.1,0.01,Rain,Rain,200,2014-04-15 10:55:00
7:15 AM,67.1,66.4,98,29.74,2.0,SW,13.8,17.3,0.50,Rain,Heavy Rain,230,2014-04-15 11:15:00
7:35 AM,67.3,66.9,99,29.74,4.0,Calm,Calm,-,0.63,Rain,Heavy Rain,0,2014-04-15 11:35:00
7:55 AM,67.3,67.1,99,29.75,2.5,SW,6.9,-,0.79,Rain,Light Rain,230,2014-04-15 11:55:00
8:15 AM,67.6,66.7,97,29.75,10.0,SSW,5.8,-,0.01,,Light Drizzle,200,2014-04-15 12:15:00
8:35 AM,67.8,67.1,98,29.76,10.0,South,4.6,-,0.01,,Overcast,170,2014-04-15 12:35:00
8:55 AM,68.0,67.6,99,29.75,10.0,South,4.6,-,0.01,,Mostly Cloudy,170,2014-04-15 12:55:00
9:15 AM,68.9,67.5,95,29.73,10.0,SSW,5.8,-,N/A,,Mostly Cloudy,200,2014-04-15 13:15:00
9:35 AM,69.8,66.7,90,29.73,10.0,SSW,8.1,-,N/A,,Scattered Clouds,200,2014-04-15 13:35:00
9:55 AM,70.7,66.6,87,29.72,10.0,South,8.1,-,N/A,,Clear,190,2014-04-15 13:55:00
10:15 AM,70.3,68.0,92,29.73,10.0,South,8.1,-,N/A,,Scattered Clouds,180,2014-04-15 14:15:00
10:35 AM,71.2,68.5,91,29.74,10.0,SSW,8.1,-,N/A,,Mostly Cloudy,200,2014-04-15 14:35:00
10:55 AM,71.6,68.7,91,29.74,10.0,South,9.2,-,N/A,,Overcast,190,2014-04-15 14:55:00
11:15 AM,71.6,67.3,86,29.74,10.0,SSW,15.0,-,N/A,,Overcast,200,2014-04-15 15:15:00
11:35 AM,71.6,66.6,84,29.73,10.0,SSW,8.1,-,N/A,Rain,Light Rain,200,2014-04-15 15:35:00
11:55 AM,71.6,65.8,82,29.71,10.0,South,9.2,-,N/A,,Overcast,170,2014-04-15 15:55:00
12:35 PM,72.0,64.6,77,29.70,10.0,South,8.1,16.1,N/A,Rain,Light Rain,190,2014-04-15 16:35:00
12:55 PM,71.4,64.0,77,29.70,10.0,SSW,8.1,-,N/A,,Light Drizzle,200,2014-04-15 16:55:00
1:35 PM,72.1,61.9,70,29.69,10.0,SSW,10.4,-,N/A,,Overcast,200,2014-04-15 17:35:00
1:55 PM,72.3,61.9,70,29.69,10.0,SSW,9.2,-,N/A,,Overcast,200,2014-04-15 17:55:00
2:15 PM,73.4,61.5,66,29.68,10.0,SSW,15.0,23.0,N/A,,Overcast,200,2014-04-15 18:15:00
2:35 PM,72.1,61.0,68,29.67,10.0,South,23.0,28.8,N/A,,Overcast,190,2014-04-15 18:35:00
2:55 PM,70.0,61.9,75,29.67,7.0,SSW,21.9,28.8,N/A,,Overcast,200,2014-04-15 18:55:00
3:15 PM,69.1,62.4,79,29.66,10.0,SSW,15.0,21.9,N/A,,Overcast,200,2014-04-15 19:15:00
3:35 PM,68.7,62.6,81,29.65,10.0,SSW,9.2,-,N/A,,Overcast,200,2014-04-15 19:35:00
3:55 PM,68.4,63.9,85,29.64,10.0,SSW,5.8,-,N/A,Rain,Rain,200,2014-04-15 19:55:00
4:15 PM,68.0,66.4,95,29.63,7.0,SSW,5.8,-,N/A,Rain,Light Rain,200,2014-04-15 20:15:00
4:35 PM,68.0,66.6,95,29.63,7.0,SSW,4.6,-,N/A,,Overcast,200,2014-04-15 20:35:00
4:55 PM,68.0,66.6,95,29.63,5.0,South,4.6,-,N/A,,Overcast,180,2014-04-15 20:55:00
5:15 PM,67.5,66.6,97,29.63,5.0,South,5.8,-,N/A,Rain,Light Rain,190,2014-04-15 21:15:00
5:35 PM,68.0,67.1,97,29.63,4.0,South,6.9,-,0.01,,Light Drizzle,190,2014-04-15 21:35:00
5:55 PM,67.6,67.1,98,29.63,5.0,South,4.6,-,0.01,,Overcast,180,2014-04-15 21:55:00
6:15 PM,66.7,64.9,94,29.67,7.0,NW,19.6,28.8,N/A,,Overcast,320,2014-04-15 22:15:00
6:35 PM,52.9,51.6,95,29.69,4.0,NNW,9.2,21.9,0.03,Rain,Rain,330,2014-04-15 22:35:00
6:55 PM,52.2,51.6,98,29.71,1.8,NNW,10.4,16.1,0.17,Rain,Heavy Rain,330,2014-04-15 22:55:00
7:15 PM,51.8,51.6,99,29.74,2.0,NNW,6.9,17.3,0.23,Rain,Heavy Rain,340,2014-04-15 23:15:00
7:35 PM,49.8,49.1,97,29.75,4.0,NNW,10.4,24.2,0.37,Rain,Heavy Rain,340,2014-04-15 23:35:00
7:55 PM,48.2,47.3,97,29.77,4.0,NNW,11.5,23.0,0.45,Rain,Rain,340,2014-04-15 23:55:00
8:15 PM,47.1,46.2,97,29.78,7.0,NNW,15.0,25.3,0.03,Rain,Light Rain,340,2014-04-16 00:15:00
8:35 PM,46.0,44.2,93,29.80,5.0,NNW,17.3,27.6,0.07,Rain,Light Rain,340,2014-04-16 00:35:00
8:55 PM,45.5,43.3,92,29.84,10.0,NNW,11.5,21.9,0.08,Rain,Light Rain,340,2014-04-16 00:55:00
9:15 PM,45.3,39.7,81,29.86,10.0,NNW,12.7,24.2,N/A,,Overcast,330,2014-04-16 01:15:00
9:35 PM,44.8,38.7,79,29.88,10.0,NNW,12.7,23.0,N/A,,Overcast,330,2014-04-16 01:35:00
9:55 PM,44.8,37.6,76,29.89,10.0,NNW,10.4,24.2,N/A,,Mostly Cloudy,330,2014-04-16 01:55:00
10:15 PM,45.1,36.9,73,29.94,10.0,NNW,10.4,18.4,N/A,,Mostly Cloudy,340,2014-04-16 02:15:00
10:35 PM,45.1,36.9,73,29.97,10.0,NNW,10.4,16.1,N/A,,Overcast,340,2014-04-16 02:35:00
10:55 PM,44.6,36.0,72,29.96,10.0,NNW,9.2,17.3,N/A,,Mostly Cloudy,330,2014-04-16 02:55:00
11:15 PM,44.1,35.6,72,29.98,10.0,NNW,8.1,-,N/A,,Mostly Cloudy,330,2014-04-16 03:15:00
11:35 PM,43.7,34.5,70,30.00,10.0,NNW,6.9,18.4,N/A,,Scattered Clouds,330,2014-04-16 03:35:00
11:55 PM,43.2,33.6,69,30.01,10.0,NNW,5.8,-,N/A,,Clear,330,2014-04-16 03:55:00